| time (UTC) | temp C | wind direction | speed KPH | gust KPH | rain 1hr cm | rain 24hr cm | rain mn cm | humidity % | barometer mb |
| 20260506035029 | 17 | 38 | 11.3 | 25.7 | 0.00 | 0.00 | 0.00 | 76 | 1009.7 |
| 20260506034526 | 17 | 40 | 9.7 | 22.5 | 0.00 | 0.00 | 0.00 | 76 | 1009.5 |
| 20260506034024 | 17 | 19 | 8.0 | 16.1 | 0.00 | 0.00 | 0.00 | 75 | 1009.4 |
| 20260506033521 | 17 | 22 | 9.7 | 20.9 | 0.00 | 0.00 | 0.00 | 75 | 1009.2 |
| 20260506033019 | 17 | 40 | 11.3 | 19.3 | 0.00 | 0.00 | 0.00 | 75 | 1009.0 |
| 20260506032516 | 17 | 43 | 14.5 | 24.1 | 0.00 | 0.00 | 0.00 | 75 | 1008.8 |
| 20260506032033 | 18 | 40 | 14.5 | 25.7 | 0.00 | 0.00 | 0.00 | 75 | 1009.0 |
| 20260506031550 | 18 | 41 | 16.1 | 25.7 | 0.00 | 0.00 | 0.00 | 75 | 1008.9 |
| 20260506031046 | 18 | 39 | 12.9 | 24.1 | 0.00 | 0.00 | 0.00 | 75 | 1008.8 |
| 20260506030523 | 18 | 36 | 12.9 | 22.5 | 0.00 | 0.00 | 0.00 | 75 | 1008.8 |
| 20260506030020 | 18 | 45 | 14.5 | 27.4 | 0.00 | 0.00 | 0.00 | 74 | 1008.7 |
| 20260506025517 | 19 | 40 | 11.3 | 20.9 | 0.00 | 0.00 | 0.00 | 73 | 1008.6 |
| 20260506025034 | 19 | 25 | 9.7 | 20.9 | 0.00 | 0.00 | 0.00 | 73 | 1008.4 |
| 20260506024550 | 19 | 37 | 9.7 | 20.9 | 0.00 | 0.00 | 0.00 | 72 | 1008.4 |
| 20260506024028 | 19 | 41 | 11.3 | 22.5 | 0.00 | 0.00 | 0.00 | 72 | 1008.3 |
| 20260506023525 | 19 | 30 | 8.0 | 17.7 | 0.00 | 0.00 | 0.00 | 71 | 1008.2 |
| 20260506023021 | 20 | 22 | 8.0 | 16.1 | 0.00 | 0.00 | 0.00 | 71 | 1008.1 |
| 20260506022538 | 20 | 31 | 6.4 | 14.5 | 0.00 | 0.00 | 0.00 | 71 | 1008.1 |
| 20260506022055 | 20 | 28 | 11.3 | 17.7 | 0.00 | 0.00 | 0.00 | 71 | 1008.0 |
| 20260506021531 | 20 | 13 | 8.0 | 14.5 | 0.00 | 0.00 | 0.00 | 70 | 1007.8 |
| 20260506021028 | 20 | 26 | 8.0 | 14.5 | 0.00 | 0.00 | 0.00 | 70 | 1007.6 |
| 20260506020525 | 20 | 42 | 8.0 | 22.5 | 0.00 | 0.00 | 0.00 | 70 | 1007.6 |
| 20260506020022 | 20 | 33 | 9.7 | 19.3 | 0.00 | 0.00 | 0.00 | 70 | 1007.8 |
| 20260506015519 | 20 | 40 | 14.5 | 24.1 | 0.00 | 0.00 | 0.00 | 70 | 1007.5 |
| 20260506015016 | 20 | 41 | 11.3 | 22.5 | 0.00 | 0.00 | 0.00 | 71 | 1007.3 |
| 20260506014532 | 20 | 44 | 12.9 | 20.9 | 0.00 | 0.00 | 0.00 | 70 | 1007.0 |
| 20260506014029 | 20 | 42 | 11.3 | 24.1 | 0.00 | 0.00 | 0.00 | 70 | 1006.9 |
| 20260506013526 | 20 | 34 | 8.0 | 17.7 | 0.00 | 0.00 | 0.00 | 69 | 1007.1 |
| 20260506013023 | 20 | 36 | 9.7 | 22.5 | 0.00 | 0.00 | 0.00 | 69 | 1006.9 |
| 20260506012520 | 20 | 47 | 9.7 | 19.3 | 0.00 | 0.00 | 0.00 | 69 | 1006.8 |
| 20260506012017 | 21 | 35 | 11.3 | 24.1 | 0.00 | 0.00 | 0.00 | 69 | 1006.7 |
| 20260506011534 | 21 | 44 | 11.3 | 17.7 | 0.00 | 0.00 | 0.00 | 69 | 1006.6 |
| 20260506011031 | 21 | 42 | 9.7 | 19.3 | 0.00 | 0.00 | 0.00 | 69 | 1006.5 |
| 20260506010528 | 21 | 44 | 12.9 | 19.3 | 0.00 | 0.00 | 0.00 | 68 | 1006.3 |
| 20260506010026 | 21 | 47 | 12.9 | 22.5 | 0.00 | 0.00 | 0.00 | 68 | 1006.3 |
| 20260506005523 | 22 | 43 | 11.3 | 19.3 | 0.00 | 0.00 | 0.00 | 68 | 1006.2 |
| 20260506005020 | 22 | 40 | 8.0 | 20.9 | 0.00 | 0.00 | 0.00 | 68 | 1006.2 |
| 20260506004523 | 22 | 19 | 6.4 | 16.1 | 0.00 | 0.00 | 0.00 | 67 | 1006.0 |
| 20260506004034 | 22 | 31 | 9.7 | 17.7 | 0.00 | 0.00 | 0.00 | 67 | 1006.0 |
| 20260506003530 | 22 | 44 | 11.3 | 20.9 | 0.00 | 0.00 | 0.00 | 67 | 1005.6 |
| 20260506003027 | 23 | 38 | 8.0 | 16.1 | 0.00 | 0.00 | 0.00 | 66 | 1005.5 |
| 20260506002524 | 23 | 31 | 9.7 | 20.9 | 0.00 | 0.00 | 0.00 | 66 | 1005.5 |
| 20260506002041 | 23 | 33 | 11.3 | 22.5 | 0.00 | 0.00 | 0.00 | 65 | 1005.7 |
| 20260506001517 | 23 | 26 | 6.4 | 12.9 | 0.00 | 0.00 | 0.00 | 65 | 1005.6 |
| 20260506001034 | 23 | 21 | 9.7 | 19.3 | 0.00 | 0.00 | 0.00 | 64 | 1005.6 |
| 20260506000531 | 23 | 35 | 11.3 | 20.9 | 0.00 | 0.00 | 0.00 | 63 | 1005.4 |
| 20260506000028 | 24 | 38 | 8.0 | 19.3 | 0.00 | 0.00 | 0.00 | 64 | 1005.5 |
| 20260505235525 | 24 | 32 | 8.0 | 16.1 | 0.00 | 0.00 | 0.00 | 63 | 1005.4 |
| 20260505235022 | 25 | 16 | 8.0 | 19.3 | 0.00 | 0.00 | 0.00 | 62 | 1005.4 |
| 20260505234517 | 25 | 27 | 8.0 | 19.3 | 0.00 | 0.00 | 0.00 | 61 | 1005.4 |
| 20260505234035 | 25 | 14 | 9.7 | 20.9 | 0.00 | 0.00 | 0.00 | 60 | 1005.3 |
| 20260505233552 | 25 | 29 | 9.7 | 16.1 | 0.00 | 0.00 | 0.00 | 60 | 1005.3 |
| 20260505233028 | 26 | 29 | 6.4 | 17.7 | 0.00 | 0.00 | 0.00 | 60 | 1005.1 |
| 20260505232606 | 26 | 360 | 6.4 | 17.7 | 0.00 | 0.00 | 0.00 | 58 | 1005.3 |
| 20260505232043 | 26 | 10 | 8.0 | 17.7 | 0.00 | 0.00 | 0.00 | 58 | 1005.3 |
| 20260505231519 | 26 | 4 | 9.7 | 16.1 | 0.00 | 0.00 | 0.00 | 57 | 1005.3 |
| 20260505231016 | 27 | 18 | 6.4 | 19.3 | 0.00 | 0.00 | 0.00 | 57 | 1005.0 |
| 20260505230533 | 27 | 6 | 8.0 | 14.5 | 0.00 | 0.00 | 0.00 | 56 | 1004.9 |
| 20260505230030 | 27 | 356 | 8.0 | 14.5 | 0.00 | 0.00 | 0.00 | 55 | 1005.1 |
| 20260505225547 | 27 | 2 | 8.0 | 17.7 | 0.00 | 0.00 | 0.00 | 55 | 1005.0 |
| 20260505225024 | 28 | 354 | 8.0 | 17.7 | 0.00 | 0.00 | 0.00 | 55 | 1004.8 |
| 20260505224540 | 28 | 340 | 6.4 | 12.9 | 0.00 | 0.00 | 0.00 | 55 | 1004.6 |
| 20260505224017 | 28 | 333 | 6.4 | 11.3 | 0.00 | 0.00 | 0.00 | 54 | 1004.6 |
| 20260505223554 | 29 | 336 | 8.0 | 19.3 | 0.00 | 0.00 | 0.00 | 54 | 1004.5 |
| 20260505223031 | 29 | 343 | 6.4 | 14.5 | 0.00 | 0.00 | 0.00 | 54 | 1004.6 |
| 20260505222528 | 29 | 7 | 8.0 | 14.5 | 0.00 | 0.00 | 0.00 | 53 | 1004.6 |
| 20260505222024 | 29 | 357 | 6.4 | 11.3 | 0.00 | 0.00 | 0.00 | 52 | 1004.3 |
| 20260505221521 | 30 | 348 | 6.4 | 12.9 | 0.00 | 0.00 | 0.00 | 49 | 1004.3 |
| 20260505221018 | 30 | 349 | 6.4 | 11.3 | 0.00 | 0.00 | 0.00 | 47 | 1004.4 |
| 20260505220515 | 30 | 355 | 6.4 | 12.9 | 0.00 | 0.00 | 0.00 | 45 | 1004.2 |
| 20260505220052 | 30 | 357 | 6.4 | 11.3 | 0.00 | 0.00 | 0.00 | 45 | 1004.1 |
| 20260505215529 | 30 | 350 | 6.4 | 14.5 | 0.00 | 0.00 | 0.00 | 45 | 1004.1 |
| 20260505215026 | 31 | 8 | 4.8 | 9.7 | 0.00 | 0.00 | 0.00 | 45 | 1004.2 |
| 20260505214543 | 31 | 346 | 6.4 | 12.9 | 0.00 | 0.00 | 0.00 | 44 | 1004.2 |
| 20260505214019 | 31 | 343 | 4.8 | 9.7 | 0.00 | 0.00 | 0.00 | 45 | 1004.4 |
| 20260505213516 | 31 | 342 | 6.4 | 12.9 | 0.00 | 0.00 | 0.00 | 45 | 1004.3 |
| 20260505213032 | 31 | 354 | 4.8 | 11.3 | 0.00 | 0.00 | 0.00 | 45 | 1004.1 |
| 20260505212530 | 31 | 8 | 6.4 | 14.5 | 0.00 | 0.00 | 0.00 | 45 | 1004.1 |
| 20260505212047 | 32 | 333 | 6.4 | 14.5 | 0.00 | 0.00 | 0.00 | 44 | 1004.1 |
| 20260505211524 | 33 | 250 | 9.7 | 22.5 | 0.00 | 0.00 | 0.00 | 45 | 1004.1 |
| 20260505211020 | 33 | 228 | 11.3 | 19.3 | 0.00 | 0.00 | 0.00 | 44 | 1004.2 |
| 20260505210517 | 33 | 243 | 8.0 | 20.9 | 0.00 | 0.00 | 0.00 | 44 | 1004.4 |
| 20260505210034 | 33 | 236 | 9.7 | 17.7 | 0.00 | 0.00 | 0.00 | 44 | 1004.2 |
| 20260505205530 | 33 | 250 | 6.4 | 14.5 | 0.00 | 0.00 | 0.00 | 44 | 1004.3 |
| 20260505205027 | 33 | 264 | 6.4 | 12.9 | 0.00 | 0.00 | 0.00 | 45 | 1004.4 |
| 20260505204524 | 33 | 221 | 9.7 | 19.3 | 0.00 | 0.00 | 0.00 | 45 | 1004.5 |
| 20260505204022 | 33 | 234 | 8.0 | 14.5 | 0.00 | 0.00 | 0.00 | 45 | 1004.6 |
| 20260505203519 | 33 | 241 | 6.4 | 16.1 | 0.00 | 0.00 | 0.00 | 45 | 1004.6 |
| 20260505203016 | 33 | 255 | 8.0 | 14.5 | 0.00 | 0.00 | 0.00 | 46 | 1004.6 |
| 20260505202552 | 33 | 225 | 11.3 | 20.9 | 0.00 | 0.00 | 0.00 | 45 | 1004.6 |
| 20260505202029 | 33 | 232 | 9.7 | 19.3 | 0.00 | 0.00 | 0.00 | 47 | 1004.7 |
| 20260505201526 | 32 | 242 | 11.3 | 27.4 | 0.00 | 0.00 | 0.00 | 47 | 1004.9 |
| 20260505201103 | 33 | 254 | 9.7 | 22.5 | 0.00 | 0.00 | 0.00 | 47 | 1005.0 |
| 20260505200540 | 32 | 254 | 9.7 | 17.7 | 0.00 | 0.00 | 0.00 | 47 | 1005.0 |
| 20260505200016 | 32 | 259 | 8.0 | 17.7 | 0.00 | 0.00 | 0.00 | 47 | 1004.9 |
| 20260505195533 | 32 | 247 | 11.3 | 20.9 | 0.00 | 0.00 | 0.00 | 47 | 1005.0 |
| 20260505195030 | 32 | 262 | 8.0 | 17.7 | 0.00 | 0.00 | 0.00 | 48 | 1005.0 |
| 20260505194527 | 32 | 256 | 9.7 | 24.1 | 0.00 | 0.00 | 0.00 | 50 | 1004.9 |
| 20260505194024 | 32 | 235 | 9.7 | 25.7 | 0.00 | 0.00 | 0.00 | 52 | 1004.9 |
| 20260505193541 | 32 | 239 | 9.7 | 20.9 | 0.00 | 0.00 | 0.00 | 52 | 1004.9 |
| 20260505193017 | 31 | 219 | 11.3 | 22.5 | 0.00 | 0.00 | 0.00 | 53 | 1004.9 |
| 20260505192534 | 31 | 231 | 12.9 | 24.1 | 0.00 | 0.00 | 0.00 | 54 | 1005.0 |
| 20260505192031 | 31 | 225 | 11.3 | 22.5 | 0.00 | 0.00 | 0.00 | 53 | 1004.9 |
| 20260505191548 | 31 | 226 | 12.9 | 24.1 | 0.00 | 0.00 | 0.00 | 54 | 1004.9 |
| 20260505191045 | 30 | 221 | 12.9 | 25.7 | 0.00 | 0.00 | 0.00 | 54 | 1004.9 |
| 20260505190522 | 31 | 226 | 14.5 | 29.0 | 0.00 | 0.00 | 0.00 | 54 | 1004.9 |
| 20260505190038 | 30 | 218 | 11.3 | 29.0 | 0.00 | 0.00 | 0.00 | 55 | 1004.8 |
| 20260505185535 | 30 | 224 | 14.5 | 29.0 | 0.00 | 0.00 | 0.00 | 56 | 1004.9 |
| 20260505185052 | 30 | 228 | 12.9 | 30.6 | 0.00 | 0.00 | 0.00 | 58 | 1004.9 |
| 20260505184529 | 30 | 220 | 12.9 | 24.1 | 0.00 | 0.00 | 0.00 | 58 | 1005.0 |
| 20260505184025 | 30 | 222 | 14.5 | 30.6 | 0.00 | 0.00 | 0.00 | 58 | 1004.9 |
| 20260505183522 | 30 | 213 | 14.5 | 32.2 | 0.00 | 0.00 | 0.00 | 57 | 1005.2 |
| 20260505183019 | 30 | 208 | 8.0 | 17.7 | 0.00 | 0.00 | 0.00 | 58 | 1005.1 |
| 20260505182516 | 29 | 221 | 12.9 | 24.1 | 0.00 | 0.00 | 0.00 | 59 | 1005.1 |
| 20260505182032 | 29 | 230 | 12.9 | 24.1 | 0.00 | 0.00 | 0.00 | 59 | 1005.0 |
| 20260505181529 | 29 | 212 | 14.5 | 30.6 | 0.00 | 0.00 | 0.00 | 59 | 1005.0 |
| 20260505181026 | 30 | 218 | 11.3 | 20.9 | 0.00 | 0.00 | 0.00 | 60 | 1005.1 |
| 20260505180522 | 29 | 217 | 9.7 | 20.9 | 0.00 | 0.00 | 0.00 | 60 | 1005.2 |
| 20260505180019 | 29 | 219 | 11.3 | 20.9 | 0.00 | 0.00 | 0.00 | 61 | 1005.2 |
| 20260505175516 | 29 | 219 | 16.1 | 30.6 | 0.00 | 0.00 | 0.00 | 61 | 1005.1 |
| 20260505175033 | 29 | 223 | 9.7 | 20.9 | 0.00 | 0.00 | 0.00 | 61 | 1005.1 |
| 20260505174530 | 29 | 214 | 8.0 | 20.9 | 0.00 | 0.00 | 0.00 | 61 | 1005.0 |
| 20260505174047 | 28 | 218 | 9.7 | 22.5 | 0.00 | 0.00 | 0.00 | 62 | 1005.1 |
| 20260505173545 | 29 | 221 | 14.5 | 27.4 | 0.00 | 0.00 | 0.00 | 62 | 1005.1 |
| 20260505173041 | 28 | 218 | 14.5 | 30.6 | 0.00 | 0.00 | 0.00 | 62 | 1005.1 |
| 20260505172516 | 28 | 221 | 9.7 | 20.9 | 0.00 | 0.00 | 0.00 | 62 | 1005.0 |
| 20260505172032 | 28 | 224 | 9.7 | 29.0 | 0.00 | 0.00 | 0.00 | 62 | 1005.1 |
| 20260505171528 | 28 | 213 | 11.3 | 25.7 | 0.00 | 0.00 | 0.00 | 63 | 1005.1 |
| 20260505171046 | 28 | 216 | 9.7 | 30.6 | 0.00 | 0.00 | 0.00 | 62 | 1005.2 |
| 20260505170522 | 28 | 217 | 12.9 | 29.0 | 0.00 | 0.00 | 0.00 | 63 | 1005.0 |
| 20260505170019 | 28 | 216 | 11.3 | 29.0 | 0.00 | 0.00 | 0.00 | 62 | 1005.0 |
| 20260505165516 | 28 | 215 | 9.7 | 20.9 | 0.00 | 0.00 | 0.00 | 63 | 1005.0 |
| 20260505165033 | 28 | 218 | 14.5 | 33.8 | 0.00 | 0.00 | 0.00 | 64 | 1005.1 |
| 20260505164530 | 28 | 215 | 12.9 | 30.6 | 0.00 | 0.00 | 0.00 | 64 | 1005.1 |
| 20260505164026 | 27 | 215 | 12.9 | 24.1 | 0.00 | 0.00 | 0.00 | 66 | 1005.1 |
| 20260505163523 | 27 | 216 | 9.7 | 20.9 | 0.00 | 0.00 | 0.00 | 66 | 1005.0 |
| 20260505163040 | 27 | 215 | 8.0 | 20.9 | 0.00 | 0.00 | 0.00 | 67 | 1005.0 |
| 20260505162517 | 26 | 216 | 11.3 | 27.4 | 0.00 | 0.00 | 0.00 | 68 | 1005.0 |
| 20260505162033 | 27 | 222 | 12.9 | 32.2 | 0.00 | 0.00 | 0.00 | 67 | 1005.0 |
| 20260505161531 | 27 | 217 | 14.5 | 29.0 | 0.00 | 0.00 | 0.00 | 67 | 1005.0 |
| 20260505161028 | 27 | 217 | 9.7 | 25.7 | 0.00 | 0.00 | 0.00 | 67 | 1004.8 |
| 20260505160525 | 26 | 223 | 9.7 | 20.9 | 0.00 | 0.00 | 0.00 | 68 | 1004.9 |
| 20260505153023 | 25 | 215 | 6.4 | 20.9 | 0.00 | 0.00 | 0.00 | 73 | 1004.7 |
| 20260505152519 | 25 | 219 | 11.3 | 24.1 | 0.00 | 0.00 | 0.00 | 73 | 1004.5 |
| 20260505152016 | 25 | 213 | 9.7 | 24.1 | 0.00 | 0.00 | 0.00 | 74 | 1004.6 |
| 20260505151533 | 25 | 217 | 11.3 | 25.7 | 0.00 | 0.00 | 0.00 | 73 | 1004.6 |
| 20260505151030 | 25 | 222 | 9.7 | 19.3 | 0.00 | 0.00 | 0.00 | 74 | 1004.8 |
| 20260505150526 | 25 | 204 | 11.3 | 19.3 | 0.00 | 0.00 | 0.00 | 74 | 1004.4 |
| 20260505140527 | 23 | 215 | 8.0 | 19.3 | 0.00 | 0.00 | 0.00 | 79 | 1004.4 |
| 20260505125019 | 21 | 227 | 8.0 | 20.9 | 0.00 | 0.00 | 0.00 | 84 | 1004.2 |
| 20260505124516 | 21 | 216 | 9.7 | 19.3 | 0.00 | 0.00 | 0.00 | 84 | 1004.0 |
| 20260505124033 | 21 | 211 | 12.9 | 32.2 | 0.00 | 0.00 | 0.00 | 84 | 1003.9 |
| 20260505123530 | 21 | 217 | 9.7 | 19.3 | 0.00 | 0.00 | 0.00 | 85 | 1003.8 |
| 20260505123027 | 21 | 223 | 8.0 | 20.9 | 0.00 | 0.00 | 0.00 | 85 | 1003.8 |
| 20260505122523 | 21 | 215 | 8.0 | 20.9 | 0.00 | 0.00 | 0.00 | 85 | 1003.7 |
| 20260505122020 | 21 | 208 | 8.0 | 24.1 | 0.00 | 0.00 | 0.00 | 86 | 1003.7 |
| 20260505121517 | 21 | 210 | 9.7 | 22.5 | 0.00 | 0.00 | 0.00 | 86 | 1003.7 |
| 20260505121034 | 21 | 199 | 8.0 | 19.3 | 0.00 | 0.00 | 0.00 | 86 | 1003.6 |
| 20260505120531 | 21 | 206 | 6.4 | 20.9 | 0.00 | 0.00 | 0.00 | 86 | 1003.4 |
| 20260505120028 | 21 | 210 | 8.0 | 19.3 | 0.00 | 0.00 | 0.00 | 86 | 1003.4 |
| 20260505115525 | 21 | 213 | 8.0 | 19.3 | 0.00 | 0.00 | 0.00 | 87 | 1003.5 |
| 20260505115021 | 21 | 200 | 8.0 | 19.3 | 0.00 | 0.00 | 0.00 | 87 | 1003.5 |
| 20260505114518 | 21 | 208 | 8.0 | 14.5 | 0.00 | 0.00 | 0.00 | 86 | 1003.5 |
| 20260505114035 | 21 | 221 | 6.4 | 17.7 | 0.00 | 0.00 | 0.00 | 86 | 1003.4 |
| 20260505113532 | 21 | 233 | 8.0 | 17.7 | 0.00 | 0.00 | 0.00 | 86 | 1003.4 |
| 20260505113029 | 21 | 216 | 9.7 | 20.9 | 0.00 | 0.00 | 0.00 | 86 | 1003.4 |
| 20260505112525 | 21 | 197 | 6.4 | 16.1 | 0.00 | 0.00 | 0.00 | 86 | 1003.2 |
| 20260505112043 | 21 | 226 | 8.0 | 20.9 | 0.00 | 0.00 | 0.00 | 86 | 1003.4 |
| 20260505111519 | 21 | 224 | 6.4 | 14.5 | 0.00 | 0.00 | 0.00 | 86 | 1003.3 |
| 20260505111016 | 21 | 202 | 8.0 | 24.1 | 0.00 | 0.00 | 0.00 | 86 | 1003.3 |
| 20260505110534 | 21 | 217 | 9.7 | 22.5 | 0.00 | 0.00 | 0.00 | 86 | 1003.3 |
| 20260505102026 | 21 | 210 | 9.7 | 20.9 | 0.00 | 0.00 | 0.00 | 85 | 1003.2 |
| 20260505101523 | 21 | 222 | 9.7 | 20.9 | 0.00 | 0.00 | 0.00 | 85 | 1003.5 |
| 20260505101020 | 21 | 214 | 8.0 | 22.5 | 0.00 | 0.00 | 0.00 | 85 | 1003.2 |
| 20260505100516 | 21 | 216 | 9.7 | 20.9 | 0.00 | 0.00 | 0.00 | 85 | 1003.2 |
| 20260505100033 | 21 | 207 | 8.0 | 20.9 | 0.00 | 0.00 | 0.00 | 85 | 1003.2 |
| 20260505095530 | 21 | 207 | 9.7 | 24.1 | 0.00 | 0.00 | 0.00 | 85 | 1003.3 |
| 20260505095027 | 21 | 212 | 9.7 | 20.9 | 0.00 | 0.00 | 0.00 | 85 | 1003.4 |
| 20260505094524 | 21 | 213 | 9.7 | 25.7 | 0.00 | 0.00 | 0.00 | 84 | 1003.3 |
| 20260505094020 | 21 | 206 | 9.7 | 19.3 | 0.00 | 0.00 | 0.00 | 84 | 1003.3 |
| 20260505093518 | 21 | 220 | 9.7 | 19.3 | 0.00 | 0.00 | 0.00 | 84 | 1003.3 |
| 20260505093035 | 21 | 215 | 8.0 | 24.1 | 0.00 | 0.00 | 0.00 | 83 | 1003.4 |
| 20260505092531 | 21 | 209 | 8.0 | 17.7 | 0.00 | 0.00 | 0.00 | 83 | 1003.3 |
| 20260505092028 | 21 | 216 | 11.3 | 25.7 | 0.00 | 0.00 | 0.00 | 83 | 1003.4 |
| 20260505091526 | 21 | 224 | 9.7 | 24.1 | 0.00 | 0.00 | 0.00 | 83 | 1003.5 |
| 20260505091021 | 21 | 217 | 9.7 | 30.6 | 0.00 | 0.00 | 0.00 | 82 | 1003.6 |
| 20260505090519 | 22 | 206 | 11.3 | 29.0 | 0.00 | 0.00 | 0.00 | 82 | 1003.7 |
| 20260505090035 | 22 | 211 | 8.0 | 25.7 | 0.00 | 0.00 | 0.00 | 82 | 1003.7 |
| 20260505085552 | 22 | 212 | 11.3 | 27.4 | 0.00 | 0.00 | 0.00 | 81 | 1003.7 |
| 20260505085029 | 22 | 213 | 9.7 | 22.5 | 0.00 | 0.00 | 0.00 | 81 | 1003.7 |
| 20260505084526 | 22 | 218 | 8.0 | 24.1 | 0.00 | 0.00 | 0.00 | 81 | 1003.7 |
| 20260505084022 | 22 | 216 | 9.7 | 30.6 | 0.00 | 0.00 | 0.00 | 80 | 1003.8 |
| 20260505083539 | 22 | 225 | 9.7 | 24.1 | 0.00 | 0.00 | 0.00 | 80 | 1003.7 |
| 20260505083015 | 22 | 205 | 8.0 | 24.1 | 0.00 | 0.00 | 0.00 | 80 | 1003.8 |
| 20260505082532 | 22 | 217 | 9.7 | 29.0 | 0.00 | 0.00 | 0.00 | 80 | 1003.8 |
| 20260505082029 | 22 | 211 | 8.0 | 20.9 | 0.00 | 0.00 | 0.00 | 79 | 1003.8 |
| 20260505081546 | 22 | 213 | 11.3 | 25.7 | 0.00 | 0.00 | 0.00 | 79 | 1003.7 |
| 20260505081023 | 22 | 211 | 8.0 | 24.1 | 0.00 | 0.00 | 0.00 | 78 | 1003.7 |
| 20260505080540 | 22 | 205 | 9.7 | 20.9 | 0.00 | 0.00 | 0.00 | 78 | 1003.7 |
| 20260505080037 | 22 | 207 | 9.7 | 22.5 | 0.00 | 0.00 | 0.00 | 77 | 1003.7 |
| 20260505075534 | 22 | 213 | 9.7 | 19.3 | 0.00 | 0.00 | 0.00 | 77 | 1003.8 |
| 20260505075031 | 22 | 216 | 8.0 | 19.3 | 0.00 | 0.00 | 0.00 | 76 | 1003.8 |
| 20260505074527 | 22 | 212 | 8.0 | 22.5 | 0.00 | 0.00 | 0.00 | 76 | 1003.9 |
| 20260505074025 | 22 | 211 | 8.0 | 17.7 | 0.00 | 0.00 | 0.00 | 76 | 1004.0 |
| 20260505073520 | 22 | 218 | 9.7 | 29.0 | 0.00 | 0.00 | 0.00 | 75 | 1004.1 |
| 20260505073018 | 22 | 214 | 9.7 | 29.0 | 0.00 | 0.00 | 0.00 | 75 | 1004.2 |
| 20260505072535 | 22 | 223 | 8.0 | 22.5 | 0.00 | 0.00 | 0.00 | 75 | 1004.3 |
| 20260505072032 | 23 | 209 | 9.7 | 17.7 | 0.00 | 0.00 | 0.00 | 74 | 1004.5 |
| 20260505071530 | 23 | 208 | 9.7 | 24.1 | 0.00 | 0.00 | 0.00 | 74 | 1004.5 |
| 20260505071027 | 23 | 208 | 8.0 | 27.4 | 0.00 | 0.00 | 0.00 | 74 | 1004.6 |
| 20260505070524 | 23 | 223 | 9.7 | 24.1 | 0.00 | 0.00 | 0.00 | 73 | 1004.7 |
| 20260505070021 | 23 | 211 | 9.7 | 29.0 | 0.00 | 0.00 | 0.00 | 73 | 1004.8 |
| 20260505065518 | 23 | 210 | 9.7 | 27.4 | 0.00 | 0.00 | 0.00 | 72 | 1004.8 |
| 20260505065035 | 23 | 210 | 8.0 | 24.1 | 0.00 | 0.00 | 0.00 | 72 | 1004.9 |
| 20260505064612 | 23 | 215 | 9.7 | 22.5 | 0.00 | 0.00 | 0.00 | 71 | 1004.9 |
| 20260505064029 | 23 | 211 | 11.3 | 29.0 | 0.00 | 0.00 | 0.00 | 71 | 1005.0 |
| 20260505063525 | 23 | 211 | 9.7 | 20.9 | 0.00 | 0.00 | 0.00 | 71 | 1005.0 |
| 20260505063042 | 23 | 213 | 8.0 | 27.4 | 0.00 | 0.00 | 0.00 | 71 | 1005.1 |
| 20260505062519 | 23 | 226 | 9.7 | 25.7 | 0.00 | 0.00 | 0.00 | 70 | 1005.1 |
| 20260505062016 | 23 | 210 | 9.7 | 29.0 | 0.00 | 0.00 | 0.00 | 70 | 1005.1 |
| 20260505061533 | 23 | 196 | 8.0 | 20.9 | 0.00 | 0.00 | 0.00 | 70 | 1005.1 |
| 20260505061030 | 23 | 212 | 8.0 | 22.5 | 0.00 | 0.00 | 0.00 | 70 | 1005.1 |
| 20260505060526 | 23 | 214 | 8.0 | 20.9 | 0.00 | 0.00 | 0.00 | 69 | 1005.0 |
| 20260505060044 | 23 | 218 | 6.4 | 22.5 | 0.00 | 0.00 | 0.00 | 69 | 1005.1 |
| 20260505055520 | 23 | 231 | 9.7 | 20.9 | 0.00 | 0.00 | 0.00 | 69 | 1005.0 |
| 20260505055016 | 24 | 211 | 11.3 | 29.0 | 0.00 | 0.00 | 0.00 | 68 | 1005.1 |
| 20260505054534 | 24 | 209 | 9.7 | 24.1 | 0.00 | 0.00 | 0.00 | 68 | 1005.1 |
| 20260505054030 | 24 | 204 | 8.0 | 22.5 | 0.00 | 0.00 | 0.00 | 68 | 1005.0 |
| 20260505053527 | 24 | 215 | 9.7 | 24.1 | 0.00 | 0.00 | 0.00 | 68 | 1005.0 |
| 20260505053024 | 24 | 211 | 8.0 | 20.9 | 0.00 | 0.00 | 0.00 | 68 | 1004.9 |
| 20260505052521 | 24 | 205 | 9.7 | 22.5 | 0.00 | 0.00 | 0.00 | 67 | 1005.0 |
| 20260505052018 | 24 | 203 | 9.7 | 17.7 | 0.00 | 0.00 | 0.00 | 67 | 1005.0 |
| 20260505051535 | 24 | 212 | 9.7 | 20.9 | 0.00 | 0.00 | 0.00 | 67 | 1005.1 |
| 20260505051031 | 24 | 210 | 9.7 | 19.3 | 0.00 | 0.00 | 0.00 | 67 | 1005.1 |
| 20260505050528 | 24 | 213 | 8.0 | 20.9 | 0.00 | 0.00 | 0.00 | 67 | 1005.1 |
| 20260505041516 | 24 | 204 | 8.0 | 16.1 | 0.00 | 0.00 | 0.00 | 68 | 1005.4 |
| 20260505041053 | 24 | 213 | 8.0 | 19.3 | 0.00 | 0.00 | 0.00 | 69 | 1005.6 |
| 20260505040529 | 24 | 225 | 6.4 | 17.7 | 0.00 | 0.00 | 0.00 | 69 | 1005.4 |
| 20260505040026 | 24 | 202 | 6.4 | 12.9 | 0.00 | 0.00 | 0.00 | 69 | 1005.4 |
| 20260505035543 | 24 | 203 | 8.0 | 14.5 | 0.00 | 0.00 | 0.00 | 69 | 1005.5 |